User: anonymous
Location: Meriden
(44.0740°N, 93.3870°W)
Time: 16:01:47
(UTC-05:00)
Language:

AO-27 - Orbit

View from above orbital plane
View from above orbital plane
View from above satellite
View from above satellite

Ground track
Ground track

The orbit data is extracted from the following two-line orbital elements,

1 22825U 93061C   14243.83608841  .00000060  00000-0  40770-4 0  7480
2 22825 098.6677 189.5343 0009516 079.3762 306.7561 14.29739935 91596
Epoch (UTC): 31 August 2014 20:03:58
Eccentricity: 0.0009516
inclination: 98.6677°
perigee height: 786 km
apogee height: 799 km
right ascension of ascending node: 189.5343°
argument of perigee: 79.3762°
revolutions per day: 14.29739935
mean anomaly at epoch: 306.7561°
orbit number at epoch: 9159

The dashed part of the orbit path shows where the satellite is in the earth's shadow,  

DLR